Location: Schommer Observatory
(40.5200°N, 74.4500°W)
Time: 13:59:06
(UTC-05:00)

OTV 5 (USA 277) - Pass Details

Date: 15 November 2017
Orbit: 404 x 417 km, 43.0° (Epoch: 07 September)

Event Time Altitude Azimuth Distance (km) Brightness Sun altitude
Exits shadow 05:57:35 13° 289° (WNW) 1,280 ? -9.2°
Maximum altitude 06:00:25 69° 12° (NNE) 435 ? -8.7°
Drops below altitude 10° 06:03:41 10° 96° (E) 1,454 ? -8.1°
Sets 06:05:47 0° 99° (E) 2,313 ? -7.7°
